Probability
0 0 0 0 0 0 0 0 0 0 0 0 0 0 0 0 0 0 0 0 0 0 0 0 0 0 0 0 0 0 0 0 0 0 0 0 0 0 0 0 0 0 0 0
0 0 0 0 0 0 0 0 0 0 0 0 0 0 0 0 0 0 0 0 0 0 0 0 0 0 0 0 0 0 0 0 0 0 0 0 0 0 0 0 0 0 0 0
0 0 0 0 0 0 0 0 0 0 0 0 0 0 0 0 0 0 0 0 0 0 0 0 0 0 0 0 0 0 0 0 0 0 0 0 0 0 0 0 0 0 0 0
0 0 0 0 0 0 0 0 0 0 0 0 0 0 0 0 0 0 0 0 0 0 0 0 0 0 0 0 0 0 0 0 0 0 0 0 0 0 0 0 0 0 0 0
0 0 0 0 0 0 0 0 0 0 0 0 0 0 0 0 0 0 0 0 0 0 0 0 0 0 0 0 0 0 0 0 0 0 0 0 0 0 0 0 0 0 0 0
0 0 0 0 0 0 0 0 0 0 0 0 0 0 0 0 0 0 0 0 0 0 0 0 0 0 0 0 0 0 0 0 0 0 0 0 0 0 0 0 0 0 0 0
0 0 0 0 0 0 0 0 0 0 0 0 0 0 0 0 0 0 0 0 0 0 0 0 0 0 0 0 0 0 0 0 0 0 0 0 0 0 0 0 0 0 0 0
0 0 0 0 0 0 0 0 0 0 0 0 0 0 0 0 0 0 0 0 0 0 0 0 0 0 0 0 0 0 0 0 0 0 0 0 0 0 0 0 0 0 0 0
0 0 0 0 0 0 0 0 0 0 0 0 0 0 0 0 0 0 0 0 0 0 0 0 0 0 0 0 0 0 0 0 0 0 0 0 0 0 0 0 0 0 0 0
0 0 0 0 0 0 0 0 0 0 0 0 0 0 0 0 0 0 0 0 0 0 0 0 0 0 0 0 0 0 0 0 0 0 0 0 0 0 0 0 0 0 0 0
0 0 0 0 0 0 0 0 0 0 0 0 0 0 0 0 0 0 0 0 0 0 0 0 0 0 0 0 0 0 0 0 0 0 0 0 0 0 0 0 0 0 0 0
0 0 0 0 0 0 0 0 0 0 0 0 0 0 0 0 0 0 0 0 0 0 0 0 0 0 0 0 0 0 0 0 0 0 0 0 0 0 0 0 0 0 0 0
0 0 0 0 0 0 0 0 0 0 0 0 0 0 0 0 0 0 0 0 0 0 0 0 0 0 0 0 0 0 0 0 0 0 0 0 0 0 0 0 0 0 0 0
0 0 0 0 0 0 0 0 0 0 0 0 0 0 0 0 0 0 0 0 0 0 0 0 0 0 0 0 0 0 0 0 0 0 0 0 0 0 0 0 0 0 0 0
0 0 0 0 0 0 0 0 0 0 0 0 0 0 0 0 0 0 0 0 0 0 0 0 0 0 0 0 0 0 0 0 0 0 0 0 0 0 0 0 0 0 0 0
0 0 0 0 0 0 0 0 0 0 0 0 0 0 0 0 0 0 0 0 0 0 0 0 0 0 0 0 0 0 0 0 0 0 0 0 0 0 0 0 0 0 0 0
0 0 0 0 0 0 0 0 0 0 0 0 0 0 0 0 0 0 0 0 0 0 0 0 0 0 0 0 0 0 0 0 0 0 0 0 0 0 0 0 0 0 0 0
0 0 0 0 0 0 0 0 0 0 0 0 0 0 0 0 0 0 0 0 0 0 0 0 0 0 0 0 0 0 0 0 0 0 0 0 0 0 0 0 0 0 0 0
0 0 0 0 0 0 0 0 0 0 0 0 0 0 0 0 0 0 0 0 0 0 0 0 0 0 0 0 0 0 0 0 0 0 0 0 0 0 0 0 0 0 0 0
0 0 0 0 0 0 0 0 0 0 0 0 0 0 0 0 0 0 0 0 0 0 0 0 0 0 0 0 0 0 0 0 0 0 0 0 0 0 0 0 0 0 0 0
0 0 0 0 0 0 0 0 0 0 0 0 0 0 0 0 0 0 0 0 0 0 0 0 0 0 0 0 0 0 0 0 0 0 0 0 0 0 0 0 0 0 0 0
0 0 0 0 0 0 0 0 0 0 0 0 0 0 0 0 0 0 0 0 0 0 0 0 0 0 0 0 0 0 0 0 0 0 0 0 0 0 0 0 0 0 0 0
0 0 0 0 0 0 0 0 0 0 0 0 0 0 0 0 0 0 0 0 0 0 0 0 0 0 0 0 0 0 0 0 0 0 0 0 0 0 0 0 0 0 0 0
0 0 0 0 0 0 0 0 0 0 0 0 0 0 0 0 0 0 0 0 0 0 0 0 0 0 0 0 0 0 0 0 0 0 0 0 0 0 0 0 0 0 0 0
0 0 0 0 0 0 0 0 0 0 0 0 0 0 0 0 0 0 0 0 0 0 0 0 0 0 0 0 0 0 0 0 0 0 0 0 0 0 0 0 0 0 0 0
0 0 0 0 0 0 0 0 0 0 0 0 0 0 0 0 0 0 0 0 0 0 0 0 0 0 0 0 0 0 0 0 0 0 0 0 0 0 0 0 0 0 0 0
0 0 0 0 0 0 0 0 0 0 0 0 0 0 0 0 0 0 0 0 0 0 0 0 0 0 0 0 0 0 0 0 0 0 0 0 0 0 0 0 0 0 0 0
Wind_Speed
7 6 6 8 11 13 15 14 12 14 16 16 14 13 11 10 8 8 8 10 11 12 11 11 10 10 9 9 8 8 7 7 6 5 5 4 4 4 4 3 3 4 4 4
7 7 9 11 14 15 17 17 19 19 21 16 14 13 12 12 11 11 11 12 12 13 12 12 12 11 10 10 9 9 8 7 7 6 6 5 5 5 4 4 4 4 4 4
6 5 6 12 13 16 14 14 14 18 18 14 13 13 13 12 11 12 12 12 12 13 13 13 12 12 12 11 10 10 9 8 8 7 7 6 6 6 5 5 4 4 4 4
4 4 11 5 1 7 12 14 15 16 16 14 14 13 12 11 12 12 11 11 11 11 11 11 10 10 10 10 11 10 9 9 8 8 7 7 7 6 6 5 4 4 4 4
4 7 10 7 4 6 7 9 9 13 14 13 10 9 9 8 10 11 10 9 8 9 9 9 10 11 11 11 11 10 10 10 9 9 8 8 7 7 6 5 5 4 4 4
6 7 7 3 1 2 3 6 3 6 8 7 4 5 3 4 5 6 6 5 5 5 7 8 10 11 11 11 11 11 10 10 9 9 9 8 8 7 6 5 5 5 4 4
9 9 8 4 1 5 5 2 2 3 5 5 5 6 6 6 5 3 2 2 4 6 6 7 9 11 11 10 11 9 9 9 9 9 8 8 7 7 6 6 6 5 5 4
7 8 7 2 5 5 4 4 4 5 4 5 6 6 6 4 3 1 0 2 3 5 5 6 8 10 9 9 8 8 9 9 9 8 7 7 7 7 7 7 7 6 5 5
6 6 3 1 4 5 5 6 6 5 5 5 5 5 4 3 2 1 1 2 3 4 5 5 7 8 8 7 8 9 9 9 9 8 8 8 8 8 7 7 6 6 6 5
8 9 8 8 8 7 7 8 8 7 7 5 6 5 4 3 2 2 2 2 3 4 5 5 7 7 7 7 9 9 9 9 8 8 8 8 7 7 7 7 7 6 6 6
10 10 10 6 5 8 8 7 7 8 7 6 6 6 5 4 3 2 2 3 3 4 5 5 6 6 6 7 9 9 9 8 8 8 8 7 7 7 8 8 8 8 7 6
8 7 8 10 9 11 11 10 9 8 7 6 5 6 5 4 3 2 3 3 3 4 4 4 5 6 7 8 9 9 8 8 7 7 6 6 7 6 9 9 11 13 10 8
10 11 12 14 13 11 10 10 8 7 7 6 5 4 4 3 2 2 3 3 4 4 4 4 5 6 7 8 9 9 8 8 7 7 7 7 7 7 6 8 12 14 15 15
11 11 12 10 10 9 9 9 7 6 5 5 4 3 2 2 2 2 3 3 3 3 4 4 5 6 6 7 8 9 8 8 7 7 7 7 7 7 6 6 6 7 11 16
9 9 11 11 10 9 8 6 5 5 4 3 2 2 2 2 2 2 2 1 2 3 3 4 5 5 5 6 8 8 7 6 6 6 6 6 6 6 6 7 6 6 5 8
10 10 9 9 9 8 6 6 5 5 3 3 2 2 2 2 1 1 0 1 2 3 3 3 4 4 4 6 7 6 6 9 8 6 6 6 6 7 7 7 7 7 7 7
9 8 8 8 8 7 6 5 4 4 3 2 2 1 1 1 0 0 1 1 2 2 2 3 3 2 4 6 6 5 5 6 10 7 6 7 7 7 7 7 7 7 7 8
7 8 8 9 8 7 5 4 2 2 2 2 1 0 1 1 1 1 2 2 2 2 1 2 2 2 4 5 5 4 4 5 6 6 6 6 7 7 7 7 8 9 7 8
7 7 7 6 5 4 3 2 1 1 1 1 1 0 0 1 1 2 1 1 1 2 2 3 3 3 3 4 5 4 5 5 5 6 6 8 8 7 7 7 7 8 7 7
6 6 5 4 4 3 2 2 2 1 1 1 1 1 1 1 2 2 1 1 1 2 3 3 3 3 3 4 5 4 5 5 6 5 6 6 6 7 7 7 8 7 7 7
6 5 4 3 3 3 2 2 1 1 2 1 1 1 1 2 2 2 2 2 2 3 4 4 2 2 2 3 5 4 4 5 5 5 6 6 6 7 7 7 7 7 7 7
5 4 4 2 2 2 2 2 1 1 1 1 1 1 1 2 2 2 2 2 3 4 3 2 2 3 4 4 3 3 4 4 4 5 5 6 6 7 7 7 7 7 7 7
4 4 3 3 2 2 2 2 2 2 2 2 2 2 2 2 2 2 2 2 3 5 3 2 4 6 6 3 2 3 4 4 4 5 5 5 6 6 6 7 7 7 7 7
4 4 3 3 2 2 3 3 2 2 2 2 2 2 2 2 2 2 2 4 5 5 3 4 6 6 5 2 2 3 3 4 4 4 5 5 5 5 6 6 6 6 7 8
4 4 4 3 3 3 3 3 3 3 3 2 3 3 2 2 2 2 3 3 5 5 3 4 6 6 4 3 3 3 3 4 4 4 4 5 5 5 6 6 6 6 6 6
4 4 4 4 4 3 3 3 3 2 2 3 2 2 2 2 2 2 2 3 4 4 3 3 3 4 3 3 3 3 4 4 5 4 5 5 6 6 6 6 7 6 6 6
4 4 3 4 3 3 3 3 3 3 3 3 3 2 2 2 2 2 2 2 3 3 3 3 3 3 3 3 4 4 4 4 4 4 5 5 5 5 6 7 6 6 6 6
Wind_Direction
260 262 238 236 231 220 222 232 245 256 260 264 270 274 276 272 265 253 233 217 208 204 199 193 190 188 185 181 176 173 175 177 173 166 159 155 154 147 138 130 121 118 116 112
255 248 246 252 246 237 237 240 247 259 266 269 275 274 270 265 257 248 238 226 216 211 205 200 196 191 186 184 179 177 180 177 168 169 167 166 162 155 147 139 134 129 122 119
258 259 257 252 241 233 231 231 238 250 260 274 272 267 266 265 257 249 244 233 222 214 209 205 199 192 189 184 175 179 181 175 172 174 174 170 166 162 158 152 145 136 129 127
260 240 242 256 218 237 242 249 244 253 267 274 278 284 281 271 261 254 247 237 227 218 211 204 193 188 182 174 176 180 180 178 176 176 175 172 171 169 165 159 154 146 140 136
241 251 268 272 235 211 227 260 251 252 264 275 287 287 270 260 256 254 253 244 232 217 205 191 184 177 172 174 178 181 184 182 180 179 177 177 177 174 169 166 159 158 154 152
236 251 258 283 129 180 222 258 252 247 269 285 274 267 297 350 307 272 259 246 221 194 182 179 174 169 173 177 182 188 186 182 179 180 181 181 179 173 171 171 168 165 164 170
238 249 263 285 154 165 227 304 5 274 280 277 252 275 322 328 322 309 269 210 178 171 173 173 166 170 179 182 190 186 175 173 176 180 182 179 174 171 171 172 171 174 175 182
224 234 248 136 154 209 288 337 306 295 293 283 274 284 292 303 311 309 165 149 162 164 160 159 167 176 183 189 180 167 168 172 177 180 177 174 173 172 175 177 180 184 189 193
239 252 330 228 239 281 302 291 297 301 298 289 282 284 284 284 280 256 213 168 166 166 157 164 177 186 190 182 168 167 171 176 178 178 178 176 178 178 179 186 192 193 197 203
264 267 281 287 285 289 285 279 290 293 292 283 278 281 275 271 261 237 208 189 178 175 179 183 187 194 192 173 170 173 178 179 179 181 182 182 185 187 190 193 197 200 203 208
267 282 294 286 302 310 303 293 294 295 285 277 277 278 271 264 253 240 220 200 194 199 201 197 189 193 186 177 175 181 184 183 183 187 186 187 195 199 201 206 206 203 206 206
268 295 296 296 307 310 302 294 290 289 285 281 271 272 273 264 253 233 220 206 205 210 211 203 195 196 188 183 184 184 185 186 187 188 189 192 196 204 216 219 219 222 221 215
278 292 288 288 292 292 290 291 290 282 277 279 281 275 270 267 249 221 217 216 220 219 216 207 202 201 192 187 188 193 193 190 188 189 191 195 198 201 204 214 223 227 226 223
283 284 280 282 288 295 294 292 289 284 280 274 275 276 266 255 238 227 232 233 226 217 213 209 207 206 193 188 193 199 200 195 193 195 196 198 201 203 204 203 205 216 223 225
295 289 282 287 287 289 289 283 277 272 273 275 278 269 259 246 243 247 248 234 210 209 213 213 215 212 192 190 196 200 199 198 198 198 199 201 201 202 205 209 214 214 207 217
305 299 291 289 288 291 291 281 273 273 272 273 273 268 267 260 262 274 252 217 217 225 223 222 228 223 197 196 200 203 206 204 198 197 198 201 202 205 207 210 214 216 217 213
300 301 304 300 298 297 292 286 281 279 279 280 285 285 253 202 200 284 306 278 256 248 239 240 247 233 208 204 204 206 206 205 203 203 205 205 206 210 212 212 215 219 222 214
291 289 291 288 290 292 296 299 295 292 298 304 304 209 209 230 263 292 303 292 265 248 258 267 266 241 223 215 213 211 207 207 204 207 208 209 212 214 216 219 221 224 226 220
316 312 310 308 304 298 305 316 329 356 9 20 37 352 336 332 324 315 303 282 277 280 302 295 278 246 234 227 219 216 213 212 212 213 212 217 218 217 218 222 224 226 225 218
326 329 336 343 353 357 358 5 17 26 21 17 32 40 15 348 331 313 284 268 298 310 318 313 287 261 251 237 226 223 219 219 220 219 217 220 223 223 223 226 228 228 227 226
321 323 329 340 353 3 3 358 4 1 358 359 347 333 325 325 320 300 275 275 328 327 315 308 295 283 267 259 235 233 226 225 226 225 222 224 228 230 230 230 231 231 232 232
308 310 311 319 331 338 346 344 336 324 329 336 331 318 312 313 316 301 272 290 319 321 315 305 303 304 299 274 248 244 242 240 238 235 233 232 232 233 234 234 235 235 235 235
296 294 291 288 292 301 311 311 299 294 296 298 299 299 298 301 301 290 293 314 314 315 311 303 311 310 304 279 256 249 249 248 247 246 246 244 242 242 243 243 243 242 241 239
292 290 285 277 268 272 282 286 284 278 277 280 278 278 280 285 284 270 285 307 315 315 309 314 317 315 308 292 277 267 262 260 258 258 258 256 253 251 251 251 251 249 248 247
279 278 275 264 257 259 263 267 271 266 264 265 271 270 263 262 273 295 302 304 311 314 308 315 322 322 313 298 290 285 281 276 275 274 267 265 263 261 260 258 257 257 254 252
274 273 269 264 263 264 262 255 255 256 257 265 271 263 255 256 266 276 284 296 304 309 310 312 317 317 312 304 294 290 288 289 288 281 277 275 270 267 265 264 264 262 260 259
269 267 266 266 260 250 249 249 253 257 251 252 265 263 259 263 268 278 287 294 300 302 302 304 307 308 308 305 301 297 292 289 286 283 280 277 276 273 272 269 268 266 264 262